[[{"header":{"parameterUnit":"m.s-1","parameterCategory":1,"la1":30.2991,"la2":30.254,"lo1":-89.0895,"lo2":-89.0444,"dy":0.0017,"dx":0.0017,"nx":28,"ny":28,"refTime":"2024-08-05T21:00:00:Z","depth":0,"parameterNumber":2,"parameterNumberName":"U-component_of_WINDS"},"data":[0,0,0,0,0,0,0,0,0,0,0,0,0,0,0,0,0,0,0,0,0,0,0,0,0,0,0,0,0,0,0,0,0,0,0,0,0,0,0,0,0,0,0,0,0,0,0,0,0,0,0,0,0,0,0,0,0,0,2.0536,2.0537,0,2.0582,2.0582,2.0583,2.0539,2.0537,2.0535,2.0534,2.0581,2.0584,2.0587,0,0,0,0,0,0,0,0,0,0,0,0,0,2.0413,2.0416,2.0536,2.0537,2.0537,2.0582,2.0582,2.0583,2.0539,2.0537,2.0535,2.0533,2.058,2.0583,2.0587,0,0,0,0,0,0,0,0,0,0,0,0,0,2.0464,2.0417,2.0536,2.0521,2.052,2.0582,2.0582,2.0583,2.054,2.0537,2.0534,2.0532,2.0579,2.0583,2.0587,2.0667,0,0,2.0601,2.0602,0,0,0,0,0,0,0,0,2.0461,2.0468,2.0523,2.0522,2.0521,2.0552,2.0556,2.0611,2.054,2.0532,2.0534,2.0531,2.0573,2.0578,2.0592,2.0669,2.0671,2.0601,2.0604,2.0605,2.0607,0,0,0,0,0,0,0,2.0458,2.0466,2.0554,2.0523,2.0523,2.0512,2.0517,2.0567,2.0567,2.0533,2.053,2.0536,2.0573,2.0588,2.0593,2.0671,2.0601,2.0605,2.0607,2.0609,2.0819,2.0822,0,0,0,0,0,0,2.0456,2.0463,2.0553,2.0556,2.0484,2.0517,2.0522,2.0545,2.0566,2.0567,2.0538,2.0533,2.0582,2.0588,2.0595,2.0692,2.0605,2.0609,2.0612,2.0816,2.0819,2.0823,0,0,0,0,0,0,2.0453,2.0464,2.0551,2.0509,2.0519,2.0522,2.0548,2.0547,2.0563,2.057,2.057,2.0554,2.058,2.0589,2.065,2.0692,2.0611,2.0615,2.0812,2.0817,2.0821,2.0884,0,0,0,0,0,0,2.045,2.0463,2.0493,2.051,2.0522,2.0605,2.0551,2.055,2.057,2.0565,2.0585,2.0586,2.0579,2.0644,2.0654,2.0697,2.0619,2.0808,2.0814,2.082,2.0878,2.089,2.09,0,0,0,0,0,2.0445,2.0508,2.0494,2.0505,2.0558,2.0607,2.0614,2.0605,2.0574,2.0604,2.0609,2.0585,2.0686,2.065,2.0662,2.0706,2.0806,2.0813,2.0819,2.0873,2.0888,2.09,0,0,0,0,0,0,2.0495,2.051,2.0495,2.0565,2.0585,2.06,2.0638,2.062,2.0649,2.0643,2.063,2.0635,2.0701,2.0709,2.0669,2.0786,2.0741,2.075,2.0778,2.0792,2.0803,2.08,2.0622,0,0,0,0,0,2.0515,2.0553,2.0563,2.0624,2.0635,2.0635,2.0656,2.0647,2.0668,2.0676,2.0685,2.0707,2.0744,2.0768,2.0802,2.0879,2.0884,2.0916,2.0927,2.0936,2.0945,2.0989,2.1004,2.0845,2.0844,2.0844,0,0,2.0554,2.0567,2.0592,2.0634,2.0649,2.069,2.0642,2.0687,2.0718,2.0683,2.0742,2.075,2.0773,2.0844,2.0875,2.0853,2.099,2.0944,2.0951,2.0955,2.0998,2.1013,2.1026,2.0849,2.0848,2.0848,0,0,2.0649,2.0661,2.0715,2.0731,2.0754,2.0754,2.0767,2.0785,2.0789,2.0848,2.0824,2.086,2.0923,2.0942,2.0959,2.1063,2.1043,2.1075,2.1133,2.1177,2.1189,2.1201,2.1241,2.1255,2.1083,2.1083,2.1083,0,2.0696,2.0756,2.0744,2.0792,2.0812,2.0783,2.0838,2.0854,2.0888,2.0903,2.0878,2.0958,2.0971,2.1047,2.1073,2.1087,2.1103,2.1073,2.1188,2.12,2.121,2.1248,2.1263,2.1087,2.1086,2.1086,2.1086,0,2.0814,2.0856,2.0897,2.0931,2.0956,2.1007,2.1004,2.1031,2.102,2.1023,2.1086,2.1101,2.1139,2.1155,2.1145,2.1231,2.1217,2.119,2.1145,2.1229,2.1265,2.1279,2.1092,2.1091,2.109,2.1089,0,0,2.0941,2.0969,2.0984,2.1001,2.1026,2.1059,2.1109,2.1147,2.1171,2.1195,2.1239,2.1294,2.127,2.129,2.1282,2.132,2.1406,2.1289,2.1289,2.1313,2.1505,2.1527,2.1544,2.1392,2.1395,2.1397,2.1504,0,2.1038,2.1126,2.1118,2.1202,2.1243,2.1217,2.1261,2.1282,2.1286,2.1322,2.1327,2.1367,2.1331,2.1344,2.138,2.1387,2.1445,2.1379,2.1435,2.1437,2.1432,2.1562,2.1585,2.1685,2.1518,2.152,2.1522,0,2.1163,2.1193,2.1282,2.1303,2.132,2.136,2.1395,2.1429,2.1453,2.1454,2.1478,2.1463,2.1516,2.1469,2.1543,2.1499,2.1521,2.1528,2.1532,2.1538,2.1486,2.1575,2.1717,2.1733,2.1543,2.1541,2.154,0,2.1251,2.1313,2.1375,2.1389,2.1415,2.1444,2.1456,2.1477,2.1501,2.1532,2.1548,2.1585,2.1605,2.1634,2.1631,2.1597,2.1708,2.1659,2.1712,2.1712,2.1738,2.1737,2.1888,2.1748,2.1748,2.1748,2.1747,0,2.1361,2.1417,2.1415,2.1453,2.1516,2.1506,2.1569,2.1577,2.1597,2.1638,2.1616,2.1655,2.1647,2.1687,2.1684,2.1748,2.1756,2.176,2.1759,2.1764,2.1764,2.1779,2.1773,2.1752,2.1751,2.175,2.1749,0,2.147,2.147,2.1536,2.1556,2.1562,2.1608,2.1625,2.1662,2.1665,2.1717,2.1729,2.1734,2.1779,2.1779,2.183,2.1828,2.1907,2.1897,2.19,2.1899,2.1952,2.1949,2.2121,2.2145,2.1987,2.1989,2.199,0,2.1542,2.1584,2.1609,2.1635,2.1649,2.1691,2.1716,2.1709,2.1736,2.1768,2.1802,2.1845,2.188,2.1953,2.1963,2.2003,2.1995,2.2053,2.2001,2.2005,2.1999,2.1998,2.2004,2.2063,2.2065,2.2067,2.2068,0,2.167,2.1669,2.1705,2.1743,2.1774,2.1803,2.183,2.1853,2.1849,2.1881,2.1927,2.1954,2.2007,2.2052,2.2091,2.2104,2.2087,2.2084,2.2099,2.2105,2.2106,2.2109,2.193,2.208,2.2079,2.2078,2.2078,2.2077,2.1764,2.1802,2.1827,2.1869,2.1889,2.1915,2.1952,2.196,2.1999,2.2042,2.2036,2.2088,2.2114,2.2164,2.2181,2.2223,2.2203,2.2224,2.223,2.2236,2.2243,2.2097,2.223,2.223,2.2229,2.2229,2.2229,0,2.1894,2.1909,2.1948,2.1987,2.2022,2.2001,2.2031,2.2061,2.2108,2.2133,2.2168,2.2223,2.2266,2.228,2.2322,2.2354,2.2347,2.2365,2.2364,2.2368,2.2257,2.2241,2.237,2.237,2.237,2.237,2.237,2.237,2.1966,2.203,2.2032,2.2107,2.2121,2.2173,2.2192,2.2217,2.2237,2.23,2.2336,2.2345,2.2366,2.241,2.245,2.2453,2.2471,2.2493,2.2493,2.239,2.2376,2.2362,2.2348,2.2497,2.2497,2.2601,2.2602,2.2603]},{"header":{"parameterUnit":"m.s-1","parameterCategory":1,"la1":30.2991,"la2":30.254,"lo1":-89.0895,"lo2":-89.0444,"dy":0.0017,"dx":0.0017,"nx":28,"ny":28,"refTime":"2024-08-05T21:00:00:Z","depth":0,"parameterNumber":3,"parameterNumberName":"V-component_of_WINDS"},"data":[0,0,0,0,0,0,0,0,0,0,0,0,0,0,0,0,0,0,0,0,0,0,0,0,0,0,0,0,0,0,0,0,0,0,0,0,0,0,0,0,0,0,0,0,0,0,0,0,0,0,0,0,0,0,0,0,0,0,-1.2691,-1.2691,0,-1.2671,-1.2671,-1.2671,-1.267,-1.267,-1.2671,-1.2671,-1.2647,-1.2647,-1.2646,0,0,0,0,0,0,0,0,0,0,0,0,0,-1.2725,-1.2725,-1.2691,-1.2691,-1.269,-1.2671,-1.2671,-1.2671,-1.267,-1.267,-1.2671,-1.2671,-1.2648,-1.2647,-1.2646,0,0,0,0,0,0,0,0,0,0,0,0,0,-1.2708,-1.2725,-1.2691,-1.2688,-1.2687,-1.2671,-1.2671,-1.267,-1.267,-1.267,-1.2671,-1.2671,-1.2648,-1.2647,-1.2645,-1.263,0,0,-1.2642,-1.2641,0,0,0,0,0,0,0,0,-1.2709,-1.2707,-1.2689,-1.2688,-1.2688,-1.2674,-1.2674,-1.2657,-1.267,-1.2676,-1.2671,-1.2671,-1.2656,-1.2654,-1.2649,-1.2629,-1.2628,-1.2641,-1.2641,-1.264,-1.264,0,0,0,0,0,0,0,-1.2711,-1.2708,-1.2683,-1.2688,-1.2688,-1.2687,-1.2685,-1.2671,-1.2664,-1.2676,-1.2676,-1.2674,-1.2655,-1.265,-1.2648,-1.2627,-1.2641,-1.264,-1.2639,-1.2639,-1.2593,-1.2592,0,0,0,0,0,0,-1.2713,-1.2709,-1.2684,-1.2682,-1.27,-1.2686,-1.2683,-1.2678,-1.2664,-1.2663,-1.2673,-1.2674,-1.2652,-1.265,-1.2648,-1.2628,-1.264,-1.2639,-1.2638,-1.2593,-1.2593,-1.2592,0,0,0,0,0,0,-1.2714,-1.2711,-1.2684,-1.2696,-1.2692,-1.2685,-1.2678,-1.2677,-1.2672,-1.2662,-1.2661,-1.267,-1.2652,-1.2649,-1.2634,-1.2627,-1.2638,-1.2637,-1.2594,-1.2593,-1.2592,-1.2589,0,0,0,0,0,0,-1.2715,-1.2711,-1.2705,-1.2696,-1.2692,-1.2672,-1.2678,-1.2676,-1.267,-1.267,-1.2658,-1.2657,-1.2653,-1.2636,-1.2633,-1.2625,-1.2636,-1.2594,-1.2593,-1.2593,-1.2589,-1.2588,-1.2587,0,0,0,0,0,-1.2716,-1.2705,-1.2705,-1.2702,-1.2685,-1.2672,-1.267,-1.2666,-1.267,-1.2664,-1.2657,-1.2657,-1.2629,-1.2635,-1.2631,-1.2623,-1.2595,-1.2594,-1.2593,-1.259,-1.2588,-1.2587,0,0,0,0,0,0,-1.2713,-1.2703,-1.2704,-1.2689,-1.2682,-1.2672,-1.2664,-1.2664,-1.2654,-1.2655,-1.265,-1.2647,-1.2632,-1.2626,-1.2633,-1.2607,-1.2612,-1.261,-1.2611,-1.2609,-1.2608,-1.2609,-1.2635,0,0,0,0,0,-1.2711,-1.2702,-1.2694,-1.2682,-1.2678,-1.2672,-1.2666,-1.2664,-1.2655,-1.2651,-1.2644,-1.2635,-1.2624,-1.2616,-1.2606,-1.2589,-1.2586,-1.2581,-1.258,-1.2579,-1.2577,-1.2567,-1.2564,-1.2589,-1.2589,-1.2589,0,0,-1.2706,-1.2699,-1.2694,-1.2681,-1.2675,-1.2664,-1.2669,-1.2658,-1.265,-1.2649,-1.2635,-1.2629,-1.2618,-1.2602,-1.2595,-1.2597,-1.257,-1.2578,-1.2577,-1.2575,-1.2565,-1.2563,-1.2561,-1.2588,-1.2588,-1.2588,0,0,-1.2691,-1.2686,-1.2675,-1.2669,-1.266,-1.2656,-1.2654,-1.2644,-1.264,-1.2626,-1.2625,-1.2615,-1.2597,-1.2589,-1.2582,-1.2565,-1.2564,-1.2562,-1.2554,-1.2544,-1.2542,-1.2541,-1.2533,-1.2531,-1.256,-1.256,-1.256,0,-1.2686,-1.2671,-1.2669,-1.2659,-1.2652,-1.2653,-1.2641,-1.2635,-1.2622,-1.2617,-1.2621,-1.2597,-1.259,-1.2571,-1.2567,-1.2562,-1.2558,-1.2563,-1.2543,-1.2541,-1.254,-1.2532,-1.253,-1.256,-1.256,-1.256,-1.256,0,-1.2665,-1.2655,-1.2647,-1.2636,-1.2629,-1.2618,-1.2613,-1.2606,-1.2605,-1.26,-1.2585,-1.2577,-1.2564,-1.256,-1.2558,-1.2541,-1.2542,-1.2544,-1.2549,-1.2537,-1.253,-1.2528,-1.256,-1.256,-1.256,-1.256,0,0,-1.2646,-1.2635,-1.2632,-1.2627,-1.2617,-1.2609,-1.2597,-1.2586,-1.2579,-1.2571,-1.256,-1.2545,-1.2547,-1.2539,-1.2537,-1.2528,-1.2514,-1.2531,-1.2531,-1.2527,-1.2493,-1.249,-1.2487,-1.2514,-1.2513,-1.2513,-1.2493,0,-1.263,-1.2611,-1.2609,-1.2591,-1.2581,-1.2581,-1.2571,-1.2563,-1.2559,-1.2549,-1.2544,-1.2533,-1.2537,-1.2532,-1.2524,-1.2517,-1.2507,-1.2519,-1.2502,-1.2502,-1.2504,-1.2484,-1.2481,-1.2463,-1.2491,-1.249,-1.249,0,-1.2608,-1.26,-1.2581,-1.2572,-1.2568,-1.2559,-1.2548,-1.254,-1.2531,-1.2528,-1.252,-1.2519,-1.2506,-1.2512,-1.2494,-1.2502,-1.2495,-1.2491,-1.249,-1.2487,-1.2494,-1.2479,-1.2458,-1.2454,-1.2486,-1.2487,-1.2487,0,-1.2595,-1.2579,-1.2566,-1.2562,-1.2552,-1.2545,-1.254,-1.2532,-1.2525,-1.2515,-1.2511,-1.25,-1.2493,-1.2484,-1.2479,-1.2484,-1.246,-1.2466,-1.2456,-1.2456,-1.2449,-1.245,-1.2425,-1.2448,-1.2448,-1.2448,-1.2448,0,-1.2576,-1.2564,-1.256,-1.2552,-1.2538,-1.2536,-1.2522,-1.2518,-1.251,-1.25,-1.25,-1.249,-1.2485,-1.2474,-1.2471,-1.2455,-1.2452,-1.2449,-1.2447,-1.2448,-1.2448,-1.2442,-1.2443,-1.2447,-1.2447,-1.2447,-1.2447,0,-1.2558,-1.2556,-1.2541,-1.2533,-1.2531,-1.2521,-1.2513,-1.2505,-1.2501,-1.2488,-1.2485,-1.2479,-1.2466,-1.2461,-1.2445,-1.2442,-1.2424,-1.2424,-1.2427,-1.2426,-1.2416,-1.2416,-1.2385,-1.238,-1.2408,-1.2407,-1.2407,0,-1.2546,-1.2537,-1.2528,-1.2522,-1.2517,-1.2507,-1.2501,-1.2498,-1.2491,-1.248,-1.2472,-1.246,-1.245,-1.2429,-1.2422,-1.241,-1.2409,-1.2399,-1.2407,-1.2408,-1.2407,-1.2407,-1.2406,-1.2397,-1.2397,-1.2397,-1.2397,0,-1.2523,-1.2522,-1.2513,-1.2503,-1.2496,-1.2488,-1.248,-1.2474,-1.247,-1.2462,-1.245,-1.2442,-1.2427,-1.2414,-1.2401,-1.2395,-1.2394,-1.2395,-1.2391,-1.2391,-1.2392,-1.239,-1.2421,-1.2395,-1.2395,-1.2395,-1.2395,-1.2395,-1.2506,-1.2498,-1.2491,-1.2481,-1.2475,-1.2468,-1.2459,-1.2454,-1.2445,-1.2432,-1.2431,-1.2418,-1.2408,-1.2392,-1.2385,-1.2374,-1.2376,-1.2371,-1.237,-1.2368,-1.2367,-1.2395,-1.2371,-1.2371,-1.2371,-1.2372,-1.2372,0,-1.2482,-1.2478,-1.2469,-1.2458,-1.245,-1.2452,-1.2444,-1.2436,-1.2424,-1.2416,-1.2407,-1.2392,-1.238,-1.2372,-1.236,-1.2352,-1.2351,-1.2348,-1.2348,-1.2346,-1.2366,-1.237,-1.2349,-1.2349,-1.2349,-1.2349,-1.2349,-1.2349,-1.2469,-1.2455,-1.2453,-1.2436,-1.2431,-1.2419,-1.2413,-1.2406,-1.24,-1.2384,-1.2374,-1.237,-1.2362,-1.2349,-1.2337,-1.2335,-1.2329,-1.2326,-1.2324,-1.2343,-1.2345,-1.2347,-1.235,-1.2326,-1.2325,-1.2305,-1.2304,-1.2304]}]]